| time (UTC) | temp F | wind direction | speed MPH | gust MPH | rain 1hr in | rain 24hr in | rain mn in | humidity % | barometer mb |
| 20260901153007 | 54 | 25 | 8.0 | 12.0 | 0.00 | 0.00 | 0.00 | 73 | 1013.5 |
| 20260901151548 | 54 | 5 | 12.0 | 21.0 | 0.00 | 0.00 | 0.00 | 71 | 1013.4 |
| 20260901150058 | 54 | 40 | 15.0 | 26.0 | 0.00 | 0.00 | 0.00 | 70 | 1013.3 |
| 20260901144544 | 54 | 10 | 16.0 | 30.0 | 0.00 | 0.00 | 0.00 | 73 | 1013.2 |
| 20260901141536 | 55 | 336 | 14.0 | 26.0 | 0.00 | 0.00 | 0.00 | 75 | 1012.9 |
| 20260901140039 | 55 | 8 | 13.0 | 22.0 | 0.00 | 0.00 | 0.00 | 75 | 1012.8 |
| 20260901134538 | 55 | 346 | 13.0 | 23.0 | 0.00 | 0.00 | 0.00 | 75 | 1013.1 |
| 20260901131522 | 55 | 323 | 8.0 | 17.0 | 0.00 | 0.00 | 0.00 | 74 | 1012.9 |
| 20260901130012 | 55 | 326 | 12.0 | 18.0 | 0.00 | 0.00 | 0.00 | 73 | 1013.0 |
| 20260901124559 | 54 | 29 | 7.0 | 11.0 | 0.00 | 0.00 | 0.00 | 73 | 1012.8 |
| 20260901121600 | 55 | 353 | 8.0 | 17.0 | 0.00 | 0.00 | 0.00 | 71 | 1012.8 |
| 20260901120043 | 54 | 358 | 10.0 | 18.0 | 0.00 | 0.00 | 0.00 | 71 | 1012.7 |
| 20260901114543 | 54 | 9 | 7.0 | 15.0 | 0.00 | 0.00 | 0.00 | 72 | 1013.0 |
| 20260901111502 | 54 | 63 | 6.0 | 13.0 | 0.00 | 0.00 | 0.00 | 70 | 1012.9 |
| 20260901104558 | 54 | 7 | 11.0 | 18.0 | 0.00 | 0.00 | 0.00 | 70 | 1013.1 |
| 20260901103057 | 54 | 60 | 10.0 | 17.0 | 0.00 | 0.00 | 0.00 | 70 | 1013.0 |
| 20260901101552 | 54 | 356 | 16.0 | 29.0 | 0.00 | 0.00 | 0.00 | 70 | 1012.9 |
| 20260901100051 | 54 | 23 | 14.0 | 29.0 | 0.00 | 0.00 | 0.00 | 69 | 1012.9 |
| 20260901093007 | 54 | 23 | 19.0 | 29.0 | 0.00 | 0.00 | 0.00 | 69 | 1012.9 |
| 20260901091507 | 54 | 20 | 15.0 | 27.0 | 0.00 | 0.00 | 0.00 | 69 | 1012.7 |
| 20260901090008 | 54 | 360 | 18.0 | 27.0 | 0.00 | 0.00 | 0.00 | 66 | 1012.8 |
| 20260901083005 | 54 | 15 | 17.0 | 26.0 | 0.00 | 0.00 | 0.00 | 68 | 1013.1 |
| 20260901081504 | 54 | 352 | 17.0 | 27.0 | 0.00 | 0.00 | 0.00 | 68 | 1012.8 |
| 20260901080004 | 54 | 346 | 17.0 | 27.0 | 0.00 | 0.00 | 0.00 | 69 | 1012.6 |
| 20260901073002 | 54 | 357 | 13.0 | 24.0 | 0.00 | 0.00 | 0.00 | 67 | 1012.6 |
| 20260901071502 | 54 | 9 | 16.0 | 27.0 | 0.00 | 0.00 | 0.00 | 67 | 1012.6 |
| 20260901070001 | 54 | 14 | 15.0 | 29.0 | 0.00 | 0.00 | 0.00 | 68 | 1012.5 |
| 20260901063001 | 54 | 2 | 15.0 | 26.0 | 0.00 | 0.00 | 0.00 | 67 | 1012.3 |
| 20260901061607 | 54 | 344 | 13.0 | 27.0 | 0.00 | 0.00 | 0.00 | 67 | 1012.1 |
| 20260901060059 | 54 | 327 | 11.0 | 21.0 | 0.00 | 0.00 | 0.00 | 67 | 1012.2 |
| 20260901054700 | 55 | 29 | 11.0 | 24.0 | 0.00 | 0.00 | 0.00 | 67 | 1012.1 |
| 20260901051526 | 56 | 15 | 12.0 | 22.0 | 0.00 | 0.00 | 0.00 | 62 | 1012.1 |
| 20260901050026 | 55 | 327 | 15.0 | 24.0 | 0.00 | 0.00 | 0.00 | 62 | 1012.1 |
| 20260901044534 | 56 | 353 | 13.0 | 21.0 | 0.00 | 0.00 | 0.00 | 63 | 1012.2 |
| 20260901041524 | 56 | 358 | 15.0 | 23.0 | 0.00 | 0.00 | 0.00 | 63 | 1012.2 |
| 20260901040024 | 56 | 347 | 13.0 | 22.0 | 0.00 | 0.00 | 0.00 | 61 | 1012.3 |
| 20260901034534 | 56 | 307 | 11.0 | 19.0 | 0.00 | 0.00 | 0.00 | 60 | 1012.4 |
| 20260901031531 | 55 | 315 | 15.0 | 22.0 | 0.00 | 0.00 | 0.00 | 61 | 1012.4 |
| 20260901030022 | 55 | 349 | 14.0 | 25.0 | 0.00 | 0.00 | 0.00 | 61 | 1012.5 |
| 20260901024523 | 55 | 327 | 14.0 | 23.0 | 0.00 | 0.00 | 0.00 | 61 | 1012.2 |
| 20260901021517 | 55 | 1 | 10.0 | 18.0 | 0.00 | 0.00 | 0.00 | 59 | 1012.2 |
| 20260901020014 | 54 | 358 | 9.0 | 20.0 | 0.00 | 0.00 | 0.00 | 61 | 1012.2 |
| 20260901014514 | 55 | 355 | 8.0 | 17.0 | 0.00 | 0.00 | 0.00 | 56 | 1012.2 |
| 20260901013014 | 55 | 25 | 9.0 | 13.0 | 0.00 | 0.00 | 0.00 | 54 | 1012.2 |
| 20260901011512 | 54 | 349 | 9.0 | 16.0 | 0.00 | 0.00 | 0.00 | 57 | 1012.4 |
| 20260901010038 | 53 | 332 | 6.0 | 12.0 | 0.00 | 0.00 | 0.00 | 51 | 1012.5 |
| 20260901004532 | 53 | 335 | 3.0 | 9.0 | 0.00 | 0.00 | 0.00 | 58 | 1012.8 |
| 20260901003036 | 52 | 308 | 7.0 | 13.0 | 0.00 | 0.00 | 0.00 | 54 | 1013.0 |
| 20260901001540 | 53 | 346 | 7.0 | 11.0 | 0.00 | 0.00 | 0.00 | 50 | 1013.0 |
| 20260901000030 | 52 | 314 | 6.0 | 10.0 | 0.00 | 0.00 | 0.00 | 48 | 1013.2 |
| 20260831234529 | 52 | 342 | 5.0 | 8.0 | 0.00 | 0.00 | 0.00 | 53 | 1013.2 |
| 20260831233027 | 52 | 353 | 6.0 | 12.0 | 0.00 | 0.00 | 0.00 | 61 | 1013.2 |
| 20260831231525 | 52 | 1 | 8.0 | 12.0 | 0.00 | 0.00 | 0.00 | 64 | 1013.3 |
| 20260831230023 | 52 | 335 | 5.0 | 14.0 | 0.00 | 0.00 | 0.00 | 65 | 1013.3 |
| 20260831224523 | 52 | 287 | 6.0 | 10.0 | 0.00 | 0.00 | 0.00 | 65 | 1013.4 |
| 20260831223019 | 51 | 3 | 4.0 | 6.0 | 0.00 | 0.00 | 0.00 | 68 | 1013.2 |
| 20260831221524 | 50 | 291 | 1.0 | 2.0 | 0.00 | 0.00 | 0.00 | 70 | 1012.9 |
| 20260831220013 | 49 | 312 | 0.0 | 1.0 | 0.00 | 0.00 | 0.00 | 73 | 1012.8 |
| 20260831214511 | 49 | 358 | 0.0 | 3.0 | 0.00 | 0.00 | 0.00 | 72 | 1012.5 |
| 20260831213011 | 49 | 4 | 1.0 | 4.0 | 0.00 | 0.00 | 0.00 | 73 | 1012.4 |
| 20260831211510 | 48 | 127 | 0.0 | 2.0 | 0.00 | 0.00 | 0.00 | 75 | 1012.4 |
| 20260831210003 | 47 | 110 | 0.0 | 1.0 | 0.00 | 0.00 | 0.00 | 78 | 1012.3 |
| 20260831204559 | 46 | 64 | 1.0 | 3.0 | 0.00 | 0.00 | 0.00 | 80 | 1012.3 |
| 20260831203033 | 45 | 95 | 0.0 | 3.0 | 0.00 | 0.00 | 0.00 | 82 | 1012.2 |
| 20260831201531 | 43 | 82 | 2.0 | 4.0 | 0.00 | 0.00 | 0.00 | 81 | 1012.2 |
| 20260831200031 | 42 | 76 | 3.0 | 6.0 | 0.00 | 0.00 | 0.00 | 83 | 1012.1 |
| 20260831194528 | 41 | 107 | 1.0 | 4.0 | 0.00 | 0.00 | 0.00 | 86 | 1011.9 |
| 20260831193038 | 39 | 95 | 0.0 | 1.0 | 0.00 | 0.00 | 0.00 | 87 | 1011.8 |
| 20260831191525 | 40 | 105 | 0.0 | 3.0 | 0.00 | 0.00 | 0.00 | 87 | 1011.3 |
| 20260831190038 | 40 | 128 | 2.0 | 3.0 | 0.00 | 0.00 | 0.00 | 85 | 1010.8 |
| 20260831184519 | 40 | 99 | 1.0 | 2.0 | 0.00 | 0.00 | 0.00 | 86 | 1010.6 |
| 20260831183017 | 40 | 120 | 1.0 | 1.0 | 0.00 | 0.00 | 0.00 | 85 | 1010.4 |
| 20260831181514 | 41 | 92 | 1.0 | 3.0 | 0.00 | 0.00 | 0.00 | 84 | 1010.1 |
| 20260831180012 | 41 | 135 | 2.0 | 5.0 | 0.00 | 0.00 | 0.00 | 82 | 1010.0 |
| 20260831174510 | 42 | 143 | 1.0 | 5.0 | 0.00 | 0.00 | 0.00 | 80 | 1009.8 |
| 20260831173008 | 42 | 126 | 3.0 | 5.0 | 0.00 | 0.00 | 0.00 | 80 | 1009.6 |
| 20260831171506 | 42 | 142 | 2.0 | 4.0 | 0.00 | 0.00 | 0.00 | 79 | 1009.5 |
| 20260831170007 | 42 | 176 | 1.0 | 4.0 | 0.00 | 0.00 | 0.00 | 80 | 1009.5 |
| 20260831164511 | 43 | 191 | 1.0 | 5.0 | 0.00 | 0.00 | 0.00 | 80 | 1009.3 |
| 20260831163004 | 44 | 61 | 0.0 | 3.0 | 0.00 | 0.00 | 0.00 | 79 | 1009.4 |
| 20260831161502 | 43 | 135 | 0.0 | 2.0 | 0.00 | 0.00 | 0.00 | 79 | 1009.1 |
| 20260831160059 | 43 | 101 | 1.0 | 3.0 | 0.00 | 0.00 | 0.00 | 79 | 1009.1 |
| 20260831154606 | 42 | 107 | 0.0 | 1.0 | 0.00 | 0.00 | 0.00 | 80 | 1008.9 |